Location: Bailleul
(50.3375°N, 2.8513°E)
Time: 04:15:42
(UTC+00:00)

Cosmos-2242 - Pass Details

Date: 19 April 2021
Orbit: 589 x 618 km, 82.5° (Epoch: 09 May)

Event Time Altitude Azimuth Distance (km) Brightness Sun altitude
Exits shadow 20:37:39 26° 154° (SSE) 1,208 4.0 -15.6°
Maximum altitude 20:39:44 47° 94° (E) 805 3.3 -15.9°
Drops below altitude 10° 20:43:53 10° 21° (NNE) 1,957 5.9 -16.4°
Sets 20:46:09 0° 15° (NNE) 2,860 6.9 -16.6°
